This demonstration page uses our WeatherBlox Daily Observations layout. Learn more.

Left ArrowRight Arrow

34.74481, -87.66753

Hourly Observations for April 9, 2015

Temp ( °F °C ) Dew Point ( °F °C ) Humidity (%) Winds ( mph kmh ) Pressure ( in mb ) Visibility ( mi km ) Precip ( " mm )
12:53 am 00:53 Mostly Cloudy 71 21.7 63 17.2 76 76 SSW 5 7 30.01 1016 10 16 0.00 0.00
1:53 am 01:53 Mostly Clear 69 20.6 63 17.2 81 81 SSE 5 7 29.99 1016 10 16 0.00 0.00
2:53 am 02:53 Clear 72 22.2 63 17.2 73 73 S 13 20 29.98 1015 10 16 0.00 0.00
3:53 am 03:53 Clear 71 21.7 63 17.2 76 76 SSW 10 17 29.98 1015 10 16 0.00 0.00
4:53 am 04:53 Clear 70 21.1 62 16.7 76 76 S 9 15 29.98 1015 10 16 0.00 0.00
6:53 am 06:53 Sunny 68 20 63 17.2 84 84 S 10 17 29.99 1016 10 16 0.00 0.00
7:53 am 07:53 Sunny 70 21.1 63 17.2 79 79 SW 12 19 30.01 1016 10 16 0.00 0.00
8:42 am 08:42 Mostly Cloudy 71 21.7 64 17.8 79 79 WSW 12 19 30.03 1017 10 16 0.00 0.00
8:53 am 08:53 Cloudy 71 21.7 64 17.8 79 79 WSW 16 26 30.04 1017 9 14 0.00 0.00
9:53 am 09:53 Cloudy 69 20.6 64 17.8 84 84 SW 13 20 30.06 1018 8 13 0.00 0.00
10:25 am 10:25 Cloudy 71 21.7 64 17.8 79 79 SSW 10 17 30.06 1018 10 16 0.00 0.00
10:53 am 10:53 Mostly Cloudy 73 22.8 64 17.8 74 74 S 15 24 30.05 1018 10 16 0.00 0.00
11:53 am 11:53 Cloudy 74 23.3 65 18.3 74 74 S 9 15 30.04 1017 10 16 0.00 0.00
12:53 pm 12:53 Cloudy 75 23.9 65 18.3 71 71 SSW 10 17 30.01 1016 10 16 0.00 0.00
1:12 pm 13:12 Cloudy 75 23.9 64 17.8 69 69 SSW 12 19 30.00 1016 10 16 0.00 0.00
1:35 pm 13:35 Cloudy 75 23.9 64 17.8 69 69 S 9 15 30.00 1016 10 16 0.00 0.00
1:53 pm 13:53 Mostly Cloudy 75 23.9 65 18.3 71 71 S 8 13 30.00 1016 10 16 0.00 0.00
2:53 pm 14:53 Mostly Sunny 77 25 66 18.9 69 69 S 9 15 29.97 1015 10 16 0.00 0.00
3:53 pm 15:53 Partly Cloudy 80 26.7 65 18.3 60 60 S 15 24 29.95 1014 10 16 0.00 0.00
4:53 pm 16:53 Mostly Sunny 81 27.2 63 17.2 54 54 S 13 20 29.94 1014 10 16 0.00 0.00
5:53 pm 17:53 Sunny 80 26.7 63 17.2 56 56 S 9 15 29.93 1014 10 16 0.00 0.00
6:53 pm 18:53 Sunny 79 26.1 61 16.1 54 54 S 9 15 29.91 1013 10 16 0.00 0.00
7:53 pm 19:53 Clear 76 24.4 62 16.7 62 62 S 6 9 29.91 1013 10 16 0.00 0.00
8:53 pm 20:53 Clear 76 24.4 63 17.2 64 64 SSE 8 13 29.90 1013 10 16 0.00 0.00
9:53 pm 21:53 Mostly Clear 77 25 63 17.2 62 62 SSW 12 19 29.94 1014 10 16 0.00 0.00
10:53 pm 22:53 Partly Cloudy 76 24.4 63 17.2 64 64 SSW 20 31 29.93 1014 10 16 0.00 0.00
11:53 pm 23:53 Clear 76 24.4 63 17.2 64 64 SSW 16 26 29.93 1014 10 16 0.00 0.00

Powered by AerisWeather